Погода в Камилухе

Россия / Республика Дагестан     41°54′35″N   46°37′53″E
темп.,
°C
ветер,
м/с
пор.,
м/с
влажн.,
%
обл.,
%
осадки,
мм/ч
давл.,
гПа
погр.,
м
25 июня, сб
сб2500:00+4ююз569856 0.4 101592
03:00+3ююз559722 0.4 101569
06:00+7ююз56856 0.0 1014272
09:00+11ююз59635 0.3 10121416
12:00+11ююз576526 1.2 10121562
15:00+11ююз576759 2.4 10121035
18:00+10ююз465973 0.3 10131108
21:00+6юз2283100 0.4 101410
26 июня, вс
вс2600:00+6юв3391100 2.5 1015125
03:00+6ю448393 2.7 101431
06:00+9ююз2269100 0.3 1012144
09:00+8ю4578100 1.3 1013788
12:00+12ю5964100 1.0 10101456
15:00+11ююз586198 3.4 10101284
18:00+8ююз3678100 3.9 1012936
21:00+7ююв1291100 9.4 1014177
27 июня, пн
пн2700:00+6ю33865 2.1 101428
03:00+6ю33820 2.1 101418
06:00+9ююз22690 0.0 101392
09:00+14ююз26440 0.0 10121792
12:00+16вюв15395 0.6 10112442
15:00+15всв14434 2.7 10112092
18:00+12св21615 1.6 1012269
21:00+6всв2295100 2.3 101713
28 июня, вт
вт2800:00+8зюз1184100 1.0 101610
03:00+6ююз22784 1.1 101410
06:00+9ююз33730 0.0 1014138
09:00+13юз35530 0.0 10121355
12:00+15юз34434 0.1 10111888
15:00+15юз24430 0.7 10101894
18:00+12сз11641 0.8 1013221
21:00+7ююз22811 1.5 101512
29 июня, ср
ср2900:00+7ссв2288100 3.1 101689
03:00+6ююв22825 3.6 101510
06:00+9вюв11722 0.0 1015113
09:00+12зюз12639 0.6 10131175
12:00+12зюз12631 2.9 10131067
15:00+12зюз12651 6.4 1014940
18:00+10юз117710 2.3 1014166
21:00+6ю229023 3.7 101613